COSMOS 2251 DEB, 34955

Orbit data source: Space-Track

COSMOS 2251 DEB, 34955 is space debris in LEO originally from a launch on Wed, 16 Jun 1993 UTC launched from the Plesetsk Missile And Space Complex (PKMTR). The debris from Iridium 33, an American commercial communications satellite, has been tracked extensively since its accidental collision with the defunct Russian satellite Cosmos 2251 in 2009. This event, occurring at high speed in low Earth orbit (LEO), generated thousands of pieces of space debris, significantly increasing the risk of further collisions. The Iridium 33 debris cloud has impacted space traffic management and orbital debris mitigation strategies, making it a subject of ongoing study in space situational awareness.

Loading next visibility...
Identifier
34955, 1993-036AEJ
Orbit
LEO
Country
Flag of CISCIS
Related business
Manufacturer
Unknown
Mission
Spacecraft
Bus & Motor
Unknown
Mass
Unknown
Launch date (UTC)
1993-06-16 (32 years ago)
Launch vehicle
Unknown
Launch site
Plesetsk Missile And Space Complex (PKMTR)
Object type
Payload
Rocket body
Debris
Shape & HBR
Unknown shape, 0.1 m
Radar Cross Section
Small (<0.1 m²)

Expand to show TLE details & history
Last TLE update: 17 hours ago

TLE from 17 hours ago
0 COSMOS 2251 DEB
1 34955U 93036AEJ 25299.45707890  .00007312  00000-0  56624-3 0  9993
2 34955  74.0380 342.5775 0078586  64.8505 296.0807 14.99137823893251
Epoch: 2025-10-26T10:58Z
TLE epoch observation values (Epoch: 2025-10-26T10:58:11.616Z)
Latitude
0.00002°
Longitude
142.9561°
Altitude
548.586 km
Speed
7.601 km/s
True Right ascension
22h 50m 18s
True Declination
0° 00' 00"
Sunlit
Object was in full shadow at epoch
Visualization orbit readout
Latitude
Unknown
Longitude
Unknown
Altitude
Unknown
Speed
Unknown
Apparent Right ascension
Unknown
Apparent Declination
Unknown
Sunlit
N/A
Visualization observer readout
Local Sidereal Time
23:43:58
Azimuth
Unknown
Elevation
Unknown
Doppler factor
Unknown
Orbital elements
Apogee altitude
621.693 km
Perigee altitude
512.533 km
Semi-major axis
6,945.25 km
Eccentricity
0.00786
Inclination
74.038°
RAAN
342.5775°
Arg. of periapsis
64.8505°
True anomaly
295.26839°
Mean anomaly
296.0807°
Eccentric anomaly
295.67489°
Mean motion
3.74983 °/min
Orbital period
96 mins
BSTAR
0.00056624
Loading maneuver chart data...
Computing Atmospheric mass density...

Documentation

Showing up to 5 results
|